Sacramento International, CA

1:32 PM PDT on April 22, 2018 (GMT -0700)
Sacramento International

Weather History for KSMF - February, 2013

Change the Weather History Date:

Tuesday, February 12, 2013

  Actual Average Record
Temperature  
Mean Temperature 48 °F -  
Max Temperature 61 °F 58 °F 72 °F (1988)
Min Temperature 35 °F 42 °F 26 °F (1946)
Degree Days  
Heating Degree Days 17    
Moisture  
Dew Point 36 °F    
Average Humidity 70    
Maximum Humidity 97    
Minimum Humidity 38    
Precipitation  
Precipitation 0.00 in - - ()
Sea Level Pressure  
Sea Level Pressure 30.32 in    
Wind  
Wind Speed 1 mph (North)    
Max Wind Speed 6 mph    
Max Gust Speed -    
Visibility 9 miles    
Events Fog    
Averages and records for this station are not official NWS values.
T = Trace of Precipitation, MM = Missing Value Source: NWS Daily Summary

Daily Weather History Graph

Daily Weather History Graph

Search for Another Location

Airport or City:

Astronomy

Feb. 12, 2013 Rise Set
Actual Time 7:00 AM PST 5:41 PM PST
Civil Twilight 6:33 AM PST 6:08 PM PST
Nautical Twilight 6:01 AM PST 6:39 PM PST
Astronomical Twilight 5:31 AM PST 7:10 PM PST
Moon 8:02 AM PST (2/12) 8:44 PM PST (2/12)
Length of Visible Light 11h 35m
Length of Day
10h 40m
Waxing Crescent, 8% of the Moon is Illuminated
Feb 12
Waxing Crescent
Feb 17
First Quarter
Feb 25
Full
Mar 4
Last Quarter
Mar 11
New

Hourly Weather History & Observations

Time (PST) Temp. Windchill Dew Point Humidity Pressure Visibility Wind Dir Wind Speed Gust Speed Precip Events Conditions
12:53 AM 39.0 °F - 33.1 °F 79% 30.25 in 10.0 mi Calm Calm - N/A   Clear
1:53 AM 37.0 °F 34.5 °F 33.1 °F 86% 30.26 in 10.0 mi ENE 3.5 mph - N/A   Clear
2:53 AM 37.9 °F - 34.0 °F 86% 30.27 in 9.0 mi Calm Calm - N/A   Clear
3:53 AM 36.0 °F 33.3 °F 33.1 °F 89% 30.27 in 9.0 mi West 3.5 mph - N/A   Clear
4:53 AM 35.1 °F 30.1 °F 32.0 °F 89% 30.30 in 7.0 mi NW 5.8 mph - N/A   Clear
5:53 AM 36.0 °F - 33.1 °F 89% 30.32 in 6.0 mi Calm Calm - N/A   Clear
6:53 AM 36.0 °F - 34.0 °F 93% 30.33 in 6.0 mi Calm Calm - N/A   Clear
7:53 AM 36.0 °F - 35.1 °F 97% 30.36 in 10.0 mi Calm Calm - N/A Fog Shallow Fog
8:53 AM 43.0 °F - 39.0 °F 86% 30.38 in 10.0 mi Calm Calm - N/A   Clear
9:53 AM 48.9 °F - 39.0 °F 69% 30.39 in 10.0 mi North 3.5 mph - N/A   Clear
10:53 AM 53.1 °F - 39.0 °F 59% 30.39 in 10.0 mi Calm Calm - N/A   Clear
11:53 AM 55.0 °F - 39.9 °F 57% 30.38 in 10.0 mi Calm Calm - N/A   Clear
12:53 PM 57.0 °F - 39.0 °F 51% 30.35 in 10.0 mi Calm Calm - N/A   Clear
1:53 PM 59.0 °F - 37.0 °F 44% 30.34 in 10.0 mi Calm Calm - N/A   Clear
2:53 PM 61.0 °F - 35.1 °F 38% 30.32 in 10.0 mi Calm Calm - N/A   Clear
3:53 PM 60.1 °F - 37.9 °F 44% 30.31 in 10.0 mi SE 3.5 mph - N/A   Clear
4:53 PM 59.0 °F - 36.0 °F 42% 30.31 in 10.0 mi ESE 3.5 mph - N/A   Clear
5:53 PM 55.0 °F - 37.0 °F 51% 30.31 in 10.0 mi Calm Calm - N/A   Clear
6:53 PM 51.1 °F - 35.1 °F 54% 30.30 in 10.0 mi Calm Calm - N/A   Clear
7:53 PM 48.9 °F - 36.0 °F 61% 30.30 in 10.0 mi SW 3.5 mph - N/A   Clear
8:53 PM 46.0 °F - 37.0 °F 71% 30.31 in 10.0 mi Calm Calm - N/A   Clear
9:53 PM 45.0 °F - 35.1 °F 68% 30.31 in 10.0 mi Calm Calm - N/A   Clear
10:53 PM 42.1 °F - 36.0 °F 79% 30.32 in 9.0 mi Calm Calm - N/A   Clear
11:53 PM 37.0 °F - 34.0 °F 89% 30.32 in 10.0 mi Calm Calm - N/A   Clear